Location: Chenango Forks
(42.2242°N, 75.8278°W)
Time: 22:09:30
(UTC-04:00)

Daily predictions for brighter satellites

Satellite Brightness Start Highest point End
(mag) Time Altitude Azimuth Time Altitude Azimuth Time Altitude Azimuth
Resurs 1-3 4.0 21:09:36 10° S 21:13:56 66° WSW 21:18:19 10° NNW
ERS-2 2.3 21:12:17 10° S 21:15:58 79° WSW 21:19:39 10° NNW
ARGOS 3.7 21:11:22 10° SE 21:16:30 46° ENE 21:21:40 10° N
NOAA 11 4.3 21:13:17 10° SSE 21:18:43 81° WSW 21:24:10 10° NNW
OAO 3 Rocket 4.3 21:18:19 10° SW 21:22:27 27° SSE 21:26:33 10° ESE
Thor Agena Rocket 4.1 21:17:23 10° N 21:22:27 63° WNW 21:27:26 10° SSW
Meteor 2-5 Rocket 4.2 21:17:33 10° SSE 21:23:12 47° E 21:28:50 10° NNE
Cosmos 1844 Rocket 4.0 21:19:56 10° SSE 21:24:02 21° E 21:28:09 10° NE
Cosmos 1602 Rocket 4.1 21:22:24 10° SSW 21:26:51 66° W 21:31:20 10° N
NOSS 2-3 (D) 3.8 21:22:50 10° SSW 21:27:21 82° ESE 21:32:39 10° NE
Cosmos 1812 Rocket 3.6 21:24:28 10° N 21:28:50 85° W 21:33:11 10° S
MetOp-A 4.3 21:26:12 10° SSE 21:31:27 59° ENE 21:36:43 10° N
Resurs 01 Rocket 2.7 21:27:46 10° S 21:31:59 44° W 21:36:14 10° NNW
Cosmos 1437 4.4 21:31:59 10° NNE 21:34:26 20° ENE 21:36:33 12° ESE
ATLAS 3B R/B 4.2 21:29:12 10° NNW 21:34:35 25° NE 21:39:53 10° E
SL-08 RB Rocket 4.1 21:32:07 10° SSE 21:36:36 51° ENE 21:41:08 10° N
Cosmos 1953 Rocket 4.2 21:33:29 10° SSE 21:37:28 37° E 21:41:32 10° NNE
Cosmos 1758 Rocket 3.7 21:38:53 10° S 21:43:14 55° E 21:47:34 10° NNE
NOSS 2-3 (E) 4.3 21:42:13 10° SW 21:46:45 66° NW 21:52:06 10° NNE
Terra 3.6 21:48:21 10° ESE 21:51:37 19° ENE 21:54:53 10° NNE
Helios 1A 4.1 21:50:13 14° SE 21:53:09 30° ENE 21:56:50 10° N
Cosmos 2263 Rocket 3.3 21:48:29 10° SW 21:53:59 49° WNW 21:59:30 10° NNE
BREEZE-M R/B 4.1 21:52:14 10° W 21:54:28 18° SW 21:56:05 11° S
ATLAS 2AS CENTAUR R/B 3.3 21:49:27 10° S 21:56:47 48° ESE 22:04:29 10° NE
Meteor 1-16 Rocket 4.4 21:52:38 10° NNW 21:58:08 74° W 22:03:47 10° S
Cosmos 1315 Rocket 2.8 21:57:41 10° S 22:01:44 85° E 22:05:50 10° N
Cosmos 2285 Rocket 4.0 21:56:51 10° S 22:03:05 66° ESE 22:09:21 10° NNE
GENESIS II 4.3 21:59:27 10° SSW 22:03:14 54° ESE 22:07:04 10° NE
Cosmos 1825 Rocket 4.0 22:05:09 10° SSW 22:09:35 65° W 22:14:02 10° N
ERS-1 Rocket 2.9 22:06:49 15° SSE 22:10:59 84° ENE 22:16:03 10° NNW
Helios 1B rocket 3.4 22:07:36 10° NE 22:11:10 28° E 22:12:47 21° SE
CZ-2C R/B 4.3 22:08:08 10° NE 22:11:27 16° E 22:13:04 14° ESE
CSL-04 DEB 4.2 22:09:59 19° SSE 22:12:45 81° ENE 22:16:41 10° NNW
In-Cosmos 22 4.2 22:08:02 10° S 22:13:33 87° WNW 22:19:14 10° N
SPOT 5 3.2 22:10:48 19° SE 22:14:21 59° ENE 22:19:30 10° N
Cosmos 1048 Rocket 4.2 22:10:32 10° SSW 22:15:49 78° WNW 22:21:13 10° NNE
NOSS 8 (A) 4.4 22:13:32 10° SW 22:16:48 75° NW 22:20:00 10° NNE
Iridium 4 Rocket 4.2 22:11:11 10° SSW 22:16:51 60° W 22:22:10 10° N
Cosmos 1340 3.9 22:14:07 10° NNE 22:17:24 27° ENE 22:18:53 21° ESE
OE (NEXTSAT) 4.4 22:17:59 10° WNW 22:21:32 78° NNE 22:23:37 23° ESE
Cosmos 921 Rocket 3.3 22:18:10 10° N 22:22:35 56° ENE 22:25:03 25° SE
Iridium 18 4.3 22:21:37 28° SSE 22:23:04 66° E 22:26:38 10° N
Lacrosse 5 1.8 22:18:11 10° SW 22:23:15 84° SE 22:28:20 10° NE
Meteor 1-29 4.1 22:21:20 10° NE 22:24:11 25° E 22:24:33 24° ESE
S3M 4.3 22:19:53 18° SSE 22:24:24 50° E 22:30:32 10° NNE
Cosmos 1300 4.4 22:23:14 10° NNE 22:26:06 20° ENE 22:27:12 18° E
Cosmos 1238 Rocket 2.9 22:23:36 12° SSW 22:26:09 48° W 22:29:03 10° N
Cosmos 1674 2.6 22:25:58 23° S 22:28:15 71° E 22:32:05 10° NNE
Aureole 1 Rocket 4.2 22:27:18 10° SW 22:30:12 33° WNW 22:33:36 10° N
NOSS 3-4 (A) 4.5 22:32:55 22° SE 22:34:15 24° ESE 22:39:05 10° ENE
NOSS 3-4 (C) 4.5 22:33:05 22° SE 22:34:21 23° ESE 22:39:09 10° ENE
CARTOSAT-1 3.8 22:36:10 29° SE 22:38:09 55° ENE 22:42:24 10° N
Cosmos 2278 Rocket 3.1 22:38:39 25° SE 22:40:16 28° ESE 22:45:03 10° NE
Cosmos 1346 Rocket 3.5 22:40:26 10° NNW 22:44:18 50° W 22:46:37 22° SSW
SL-14 R/B 4.0 22:44:17 31° ESE 22:44:57 34° E 22:48:30 10° NNE
COSMOS 2406 3.4 22:39:45 10° NNW 22:45:31 66° ENE 22:48:35 28° SE
SPOT 1/Viking Rocket 3.6 22:43:55 24° S 22:47:04 74° WSW 22:52:14 10° NNW
BREEZE-M DEB (TANK) 3.4 22:39:22 10° WSW 22:47:20 66° NNW 22:50:11 10° NE
H-2A R/B 3.4 22:43:05 10° SSW 22:47:46 34° W 22:52:38 10° NNW
Cosmos 1553 Rocket 3.9 22:44:41 17° S 22:49:27 89° E 22:55:34 10° N
Cosmos 724 4.4 22:47:32 10° NW 22:53:35 81° WSW 22:56:49 30° SSE
Cosmos 220 Rocket 4.1 22:54:37 39° SSE 22:55:46 52° ESE 22:59:53 10° NNE
Cosmos 1110 Rocket 4.0 22:51:23 10° NNW 22:56:33 75° WSW 22:59:03 31° S
Cosmos 1726 2.2 22:53:24 10° NNW 22:57:09 74° W 22:58:22 40° S
Cosmos 1461 4.2 22:57:59 28° ESE 22:57:59 28° ESE 23:01:47 10° NE
Cosmos 1844 3.7 22:55:01 10° SSW 23:00:42 83° WNW 23:06:30 10° NNE
SL-8 R/B 3.6 22:57:04 10° SW 23:01:53 74° SSE 23:06:43 10° ENE
Meteor 2-10 4.1 22:57:59 10° NNW 23:03:23 81° W 23:06:10 30° S
KORONAS-FOTON 4.4 23:01:18 24° SSW 23:03:23 55° W 23:07:14 10° N
Cosmos 1842 Rocket 3.4 22:59:43 10° N 23:04:05 89° W 23:05:36 41° S
OAO 3 Rocket 3.8 23:00:56 10° WSW 23:05:25 36° S 23:05:27 36° S
APEX 3.4 23:02:49 10° NNW 23:05:45 45° ENE 23:06:05 43° E
IGS 5A 3.6 23:05:01 38° S 23:06:28 69° WSW 23:10:38 10° NNW
Cosmos 1844 Rocket 3.3 23:01:53 10° SW 23:07:27 57° WNW 23:13:02 10° NNE
Landsat 7 4.4 23:07:17 27° SSW 23:09:36 52° W 23:14:16 10° NNW
Cosmos 1076 Rocket 4.2 23:10:01 34° ESE 23:10:25 35° E 23:14:18 10° NNE
Cosmos 1331 Rocket 4.3 23:07:47 10° NNW 23:12:55 61° WSW 23:15:07 33° S
Cosmos 1386 Rocket 4.4 23:10:21 10° N 23:16:29 87° W 23:19:21 33° S
Cosmos 2084 4.2 23:15:03 10° NW 23:18:32 33° WSW 23:19:00 32° SW
USA 238 DEB 3.8 23:12:54 10° NW 23:20:01 73° WSW 23:23:31 33° SSE
USA 238 3.8 23:13:00 10° NW 23:20:07 73° WSW 23:23:37 33° SSE
CZ-2C R/B 3.4 23:18:55 34° S 23:21:36 79° WSW 23:27:25 10° NNW
Okean 3 Rocket 4.0 23:22:26 41° ESE 23:22:51 42° E 23:27:01 10° NNE
ATLAS 3B R/B 2.5 23:19:24 10° NW 23:26:05 85° WSW 23:28:55 37° SSE
Cosmos 2082 Rocket 3.4 23:22:21 10° N 23:27:31 34° ENE 23:30:12 23° ESE
Terra 2.4 23:27:13 34° SSW 23:28:57 51° W 23:33:36 10° NNW
SAR-Lupe-4 4.2 23:29:58 43° ENE 23:30:02 43° ENE 23:33:26 10° N
Mayak 0.6 23:28:37 10° NE 23:31:04 18° E 23:31:04 18° E
ATLAS 5 CENTAUR R/B 2.6 23:32:32 32° E 23:32:32 32° E 23:36:07 10° NE
NOSS 3-2 (A) 4.0 23:26:45 10° NW 23:34:22 89° SW 23:38:29 34° SSE
Cosmos 2251 Rocket 3.7 23:33:44 28° SSW 23:36:36 73° WNW 23:41:57 10° NNE
Cosmos 1833 Rocket 3.4 23:31:45 10° NNW 23:37:07 44° ENE 23:39:19 30° ESE
Cosmos 1302 Rocket 4.2 23:33:22 10° NNW 23:38:37 65° WSW 23:40:10 44° SSW
Spot 4 3.8 23:43:44 54° SSE 23:44:51 87° E 23:49:45 10° NNW
Helios 1B rocket 4.5 23:43:01 10° NNW 23:46:20 24° WNW 23:49:09 12° WSW
SAR-Lupe-1 4.3 23:48:04 59° ENE 23:48:04 59° ENE 23:51:27 10° N
ATLAS 2AS CENTAUR R/B 4.0 23:40:20 10° WSW 23:47:54 47° NW 23:55:44 10° NNE
Cosmos 1328 3.6 23:48:01 81° SSW 23:48:11 88° W 23:52:09 10° N
CZ-2C R/B 2.9 23:46:49 10° N 23:52:14 66° WNW 23:54:35 33° SW
Cosmos 2221 3.0 23:48:15 10° NNW 23:52:27 49° W 23:53:10 44° SW
